Tracking 30303 objects as of 20-Apr-2025
HD Live streaming from Space Station
objects crossing your sky now

STARLINK-3961

Track STARLINK-3961 now!
10-day predictions
STARLINK-3961 is classified as:


NORAD ID: 52637
Int'l Code: 2022-052AR
Perigee: 546.0 km
Apogee: 547.8 km
Inclination: 53.2 °
Period: 95.4 minutes
Semi major axis: 6917 km
RCS: Unknown
Launch date: May 14, 2022
Source: United States (US)
Launch site: AIR FORCE EASTERN TEST RANGE (AFETR)
Your satellite tracking list
Your tracking list is empty




NASA's NSSDC Master Catalog

Two Line Element Set (TLE):
1 52637U 22052AR  25109.82834021  .00000530  00000-0  51383-4 0  9991
2 52637  53.2181 272.9878 0001262  99.9786 260.1348 15.08835512163043
Source of the keplerian elements: AFSPC